GW1000 Weather Reports


Display with metric or nautical units.
time (UTC)temp
F
wind
direction
speed
MPH
gust
MPH
rain 1hr
in
rain 24hr
in
rain mn
in
humidity
%
barometer
mb
20260904003732 76 187 3.0 3.0 0.00 0.00 0.00 83 1004.9
20260904003229 76 50 0.0 2.0 0.00 0.00 0.00 83 1004.9
20260904002724 76 347 0.0 2.0 0.00 0.00 0.00 82 1004.9
20260904002220 77 213 3.0 3.0 0.00 0.00 0.00 83 1004.8
20260904001714 77 209 3.0 3.0 0.00 0.00 0.00 82 1004.7
20260904001214 77 153 2.0 3.0 0.00 0.00 0.00 82 1005.0
20260904000709 76 247 3.0 3.0 0.00 0.00 0.00 82 1004.8
20260904000204 77 140 2.0 2.0 0.00 0.00 0.00 82 1004.8
20260903235703 77 132 1.0 3.0 0.00 0.00 0.00 82 1004.8
20260903235200 77 191 2.0 3.0 0.00 0.00 0.00 82 1005.1
20260903234654 77 201 2.0 3.0 0.00 0.00 0.00 82 1005.0
20260903234151 76 128 1.0 2.0 0.00 0.00 0.00 82 1004.7
20260903233646 76 34 1.0 2.0 0.00 0.00 0.00 82 1005.0
20260903233142 76 308 1.0 1.0 0.00 0.00 0.00 82 1005.0
20260903232636 76 116 0.0 1.0 0.00 0.00 0.00 82 1004.8
20260903232132 76 133 0.0 0.0 0.00 0.00 0.00 81 1005.0
20260903231632 76 133 0.0 0.0 0.00 0.00 0.00 81 1004.8
20260903231131 77 134 0.0 0.0 0.00 0.00 0.00 81 1005.0
20260903230627 77 138 0.0 1.0 0.00 0.00 0.00 81 1005.0
20260903230126 77 220 1.0 1.0 0.00 0.00 0.00 80 1005.1
20260903225624 77 336 0.0 1.0 0.00 0.00 0.00 80 1005.1
20260903225120 77 10 0.0 1.0 0.00 0.00 0.00 80 1005.2
20260903224616 77 230 1.0 1.0 0.00 0.00 0.00 80 1005.3
20260903224112 78 191 0.0 1.0 0.00 0.00 0.00 79 1005.3
20260903223607 78 30 0.0 1.0 0.00 0.00 0.00 79 1005.2
20260903223105 78 0 0.0 1.0 0.00 0.00 0.00 79 1005.1
20260903222600 78 67 0.0 1.0 0.00 0.00 0.00 79 1005.2
20260903222059 78 259 2.0 2.0 0.00 0.00 0.00 79 1005.3
20260903221555 78 243 3.0 3.0 0.00 0.00 0.00 78 1005.5
20260903221052 78 196 2.0 2.0 0.00 0.00 0.00 78 1005.3
20260903220551 78 252 1.0 3.0 0.00 0.00 0.00 78 1005.4
20260903220051 78 253 1.0 2.0 0.00 0.00 0.00 79 1005.4
20260903215550 78 227 2.0 3.0 0.00 0.00 0.00 79 1005.4
20260903215049 78 214 2.0 2.0 0.00 0.00 0.00 79 1005.2
20260903214544 79 227 1.0 2.0 0.00 0.00 0.00 79 1005.4
20260903214039 79 292 3.0 3.0 0.00 0.00 0.00 79 1005.3
20260903213534 79 242 1.0 2.0 0.00 0.00 0.00 79 1005.5
20260903213030 79 30 0.0 1.0 0.00 0.00 0.00 79 1005.4
20260903212526 79 347 0.0 1.0 0.00 0.00 0.00 79 1005.6
20260903212021 79 347 1.0 3.0 0.00 0.00 0.00 79 1005.6
20260903211516 79 351 1.0 2.0 0.00 0.00 0.00 79 1005.6
20260903211013 79 249 2.0 3.0 0.00 0.00 0.00 79 1005.6
20260903210513 79 294 2.0 3.0 0.00 0.00 0.00 79 1005.7
20260903210008 79 262 2.0 2.0 0.00 0.00 0.00 79 1005.6
20260903205502 79 283 1.0 2.0 0.00 0.00 0.00 79 1005.5
20260903204956 79 316 2.0 2.0 0.00 0.00 0.00 78 1005.4
20260903204453 79 277 2.0 3.0 0.00 0.00 0.00 79 1005.6
20260903203948 79 303 2.0 2.0 0.00 0.00 0.00 79 1005.6
20260903203444 79 326 1.0 2.0 0.00 0.00 0.00 79 1005.5
20260903202942 79 295 2.0 2.0 0.00 0.00 0.00 79 1005.5
20260903202438 79 286 3.0 3.0 0.00 0.00 0.00 79 1005.6
20260903201933 80 285 2.0 2.0 0.00 0.00 0.00 79 1005.4
20260903201429 80 280 1.0 2.0 0.00 0.00 0.00 79 1005.7
20260903200927 79 292 2.0 2.0 0.00 0.00 0.00 79 1005.6
20260903200422 79 266 2.0 2.0 0.00 0.00 0.00 79 1005.6
20260903195917 79 359 0.0 0.0 0.00 0.00 0.00 79 1005.6
20260903195414 79 8 0.0 1.0 0.00 0.00 0.00 79 1005.7
20260903194908 80 358 0.0 1.0 0.00 0.00 0.00 79 1005.6
20260903194404 80 291 1.0 2.0 0.00 0.00 0.00 79 1005.6
20260903193859 80 258 2.0 2.0 0.00 0.00 0.00 79 1005.5
20260903193355 80 315 1.0 2.0 0.00 0.00 0.00 79 1005.5
20260903192844 79 311 1.0 2.0 0.00 0.00 0.00 79 1005.5
20260903192340 80 326 1.0 2.0 0.00 0.00 0.00 79 1005.6
20260903191836 80 356 1.0 2.0 0.00 0.00 0.00 79 1005.5
20260903191332 80 319 2.0 2.0 0.00 0.00 0.00 79 1005.5
20260903190830 80 4 1.0 2.0 0.00 0.00 0.00 79 1005.5
20260903190326 80 299 1.0 2.0 0.00 0.00 0.00 79 1005.5
20260903185820 80 313 2.0 2.0 0.00 0.00 0.00 79 1005.5
20260903185315 80 267 2.0 2.0 0.00 0.00 0.00 79 1005.8
20260903184811 80 256 2.0 3.0 0.00 0.00 0.00 79 1005.5
20260903184308 80 256 2.0 2.0 0.00 0.00 0.00 79 1005.6
20260903183802 80 271 2.0 2.0 0.00 0.00 0.00 79 1005.6
20260903183256 80 274 1.0 2.0 0.00 0.00 0.00 79 1005.7
20260903182755 80 266 2.0 2.0 0.00 0.00 0.00 79 1005.7
20260903182250 80 335 1.0 2.0 0.00 0.00 0.00 79 1005.4
20260903181749 80 256 1.0 2.0 0.00 0.00 0.00 79 1005.5
20260903181244 80 4 1.0 1.0 0.00 0.00 0.00 79 1005.5
20260903180740 80 342 2.0 2.0 0.00 0.00 0.00 79 1005.4
20260903180238 80 352 1.0 1.0 0.00 0.00 0.00 79 1005.6
20260903175733 80 357 1.0 2.0 0.00 0.00 0.00 79 1005.4
20260903175232 80 356 1.0 3.0 0.00 0.00 0.00 79 1005.4
20260903174731 80 1 2.0 3.0 0.00 0.00 0.00 78 1005.4
20260903174227 80 351 2.0 3.0 0.00 0.00 0.00 78 1005.5
20260903173722 80 316 2.0 5.0 0.00 0.00 0.00 78 1005.3
20260903173217 80 332 1.0 1.0 0.00 0.00 0.00 78 1005.2
20260903172712 81 325 1.0 3.0 0.00 0.00 0.00 78 1005.3
20260903172207 81 346 1.0 3.0 0.00 0.00 0.00 78 1005.3
20260903171702 81 335 2.0 3.0 0.00 0.00 0.00 77 1005.0
20260903171159 81 307 3.0 5.0 0.00 0.00 0.00 77 1004.8
20260903170657 81 324 2.0 3.0 0.00 0.00 0.00 77 1004.9
20260903170153 81 352 1.0 3.0 0.00 0.00 0.00 77 1004.9
20260903165650 81 335 4.0 5.0 0.00 0.00 0.00 77 1004.7
20260903165146 82 351 3.0 3.0 0.00 0.00 0.00 76 1004.6
20260903164645 82 295 5.0 7.0 0.00 0.00 0.00 76 1004.8
20260903164136 82 349 3.0 5.0 0.00 0.00 0.00 76 1004.7
20260903163630 82 320 5.0 6.0 0.00 0.00 0.00 75 1004.7
20260903163127 82 6 4.0 5.0 0.00 0.00 0.00 75 1004.6
20260903162623 82 5 5.0 6.0 0.00 0.00 0.00 75 1004.6
20260903162118 82 280 4.0 6.0 0.00 0.00 0.00 74 1004.5
20260903161613 82 290 6.0 8.0 0.00 0.00 0.00 74 1004.6
20260903161108 83 358 4.0 7.0 0.00 0.00 0.00 74 1004.5
20260903160603 83 326 3.0 7.0 0.00 0.00 0.00 73 1004.5
20260903160057 83 6 3.0 6.0 0.00 0.00 0.00 72 1004.4
20260903155556 84 295 3.0 5.0 0.00 0.00 0.00 72 1004.3
20260903155051 84 27 4.0 6.0 0.00 0.00 0.00 72 1004.4
20260903154548 84 4 5.0 9.0 0.00 0.00 0.00 71 1004.3
20260903154044 84 326 7.0 8.0 0.00 0.00 0.00 70 1004.5
20260903153539 84 359 4.0 5.0 0.00 0.00 0.00 70 1004.4
20260903153035 85 334 8.0 9.0 0.00 0.00 0.00 69 1004.1
20260903152530 85 311 5.0 7.0 0.00 0.00 0.00 68 1004.1
20260903152027 85 256 6.0 8.0 0.00 0.00 0.00 67 1004.5
20260903151525 86 352 4.0 7.0 0.00 0.00 0.00 67 1004.2
20260903151021 86 279 5.0 6.0 0.00 0.00 0.00 66 1004.2
20260903150521 86 313 3.0 6.0 0.00 0.00 0.00 66 1004.3
20260903150016 86 301 6.0 10.0 0.00 0.00 0.00 63 1004.4
20260903145510 86 243 5.0 7.0 0.00 0.00 0.00 62 1004.1
20260903145006 87 270 8.0 9.0 0.00 0.00 0.00 61 1004.4
20260903144505 86 317 5.0 8.0 0.00 0.00 0.00 61 1004.3
20260903144001 86 256 5.0 5.0 0.00 0.00 0.00 61 1004.3
20260903143457 86 277 4.0 6.0 0.00 0.00 0.00 60 1004.1
20260903142953 86 23 5.0 7.0 0.00 0.00 0.00 60 1004.1
20260903142448 86 297 6.0 10.0 0.00 0.00 0.00 61 1004.2
20260903141944 86 333 8.0 11.0 0.00 0.00 0.00 61 1004.2
20260903141439 87 344 10.0 15.0 0.00 0.00 0.00 61 1004.1
20260903140935 87 271 5.0 8.0 0.00 0.00 0.00 62 1004.1
20260903140430 87 341 5.0 10.0 0.00 0.00 0.00 62 1004.2
20260903135925 87 346 8.0 10.0 0.00 0.00 0.00 63 1003.9
20260903135421 87 336 7.0 11.0 0.00 0.00 0.00 63 1004.0
20260903134920 86 270 6.0 11.0 0.00 0.00 0.00 62 1004.1
20260903134414 87 349 9.0 14.0 0.00 0.00 0.00 63 1004.0
20260903133912 87 352 11.0 13.0 0.00 0.00 0.00 62 1003.9
20260903133408 87 275 5.0 8.0 0.00 0.00 0.00 62 1004.2
20260903132903 87 309 9.0 14.0 0.00 0.00 0.00 62 1004.0
20260903132359 88 292 5.0 7.0 0.00 0.00 0.00 60 1003.8
20260903131858 88 254 6.0 10.0 0.00 0.00 0.00 60 1004.0
20260903131353 88 280 7.0 8.0 0.00 0.00 0.00 59 1003.9
20260903130852 88 351 7.0 8.0 0.00 0.00 0.00 59 1004.0
20260903130347 89 342 7.0 9.0 0.00 0.00 0.00 57 1003.9
20260903125846 88 260 8.0 16.0 0.00 0.00 0.00 59 1004.1
20260903125341 88 325 7.0 10.0 0.00 0.00 0.00 59 1004.0
20260903124840 89 270 12.0 13.0 0.00 0.00 0.00 58 1004.1
20260903124336 89 268 6.0 9.0 0.00 0.00 0.00 56 1004.0
20260903123834 89 277 3.0 7.0 0.00 0.00 0.00 58 1004.1
20260903123329 89 339 3.0 6.0 0.00 0.00 0.00 57 1003.9
20260903122828 88 341 9.0 11.0 0.00 0.00 0.00 59 1004.0
20260903122323 89 278 4.0 8.0 0.00 0.00 0.00 58 1003.9
20260903121822 88 258 11.0 11.0 0.00 0.00 0.00 58 1004.0
20260903121317 88 241 8.0 13.0 0.00 0.00 0.00 60 1004.2
20260903120812 88 316 11.0 15.0 0.00 0.00 0.00 60 1004.2
20260903120306 89 251 4.0 11.0 0.00 0.00 0.00 60 1004.3
20260903115805 89 357 9.0 11.0 0.00 0.00 0.00 60 1004.4
20260903115300 89 279 6.0 7.0 0.00 0.00 0.00 59 1004.1
20260903114800 89 344 4.0 10.0 0.00 0.00 0.00 61 1004.4
20260903114255 89 235 7.0 10.0 0.00 0.00 0.00 60 1004.3
20260903113750 89 337 5.0 13.0 0.00 0.00 0.00 61 1004.4
20260903113246 88 272 5.0 9.0 0.00 0.00 0.00 62 1004.2
20260903112742 89 309 11.0 20.0 0.00 0.00 0.00 61 1004.3
20260903112238 89 246 9.0 11.0 0.00 0.00 0.00 60 1004.3
20260903111736 89 354 4.0 8.0 0.00 0.00 0.00 60 1004.2
20260903111231 89 299 3.0 15.0 0.00 0.00 0.00 59 1004.5
20260903110728 89 257 5.0 14.0 0.00 0.00 0.00 59 1004.3
20260903110223 89 277 9.0 14.0 0.00 0.00 0.00 59 1004.4
20260903105723 89 327 7.0 13.0 0.00 0.00 0.00 60 1004.7
20260903105218 90 302 7.0 10.0 0.00 0.00 0.00 58 1004.6
20260903104717 89 333 3.0 13.0 0.00 0.00 0.00 58 1004.6
20260903104213 89 354 7.0 14.0 0.00 0.00 0.00 59 1004.8
20260903103708 89 20 5.0 7.0 0.00 0.00 0.00 59 1004.7
20260903103204 89 264 3.0 11.0 0.00 0.00 0.00 59 1004.5
20260903102700 89 272 10.0 10.0 0.00 0.00 0.00 58 1004.6
20260903102154 88 292 7.0 9.0 0.00 0.00 0.00 60 1004.7
20260903101653 89 2 6.0 13.0 0.00 0.00 0.00 59 1004.6
20260903101149 89 225 5.0 7.0 0.00 0.00 0.00 59 1004.7
20260903100643 90 280 8.0 13.0 0.00 0.00 0.00 57 1004.9
20260903100143 89 260 12.0 14.0 0.00 0.00 0.00 58 1004.9
20260903095641 89 277 11.0 14.0 0.00 0.00 0.00 57 1004.9
20260903095141 89 269 8.0 14.0 0.00 0.00 0.00 57 1004.7
20260903094636 89 249 8.0 13.0 0.00 0.00 0.00 57 1005.0
20260903094131 89 309 7.0 10.0 0.00 0.00 0.00 57 1004.9
20260903093626 88 331 4.0 10.0 0.00 0.00 0.00 58 1005.2
20260903093121 88 284 9.0 14.0 0.00 0.00 0.00 59 1004.9
20260903092621 89 249 3.0 7.0 0.00 0.00 0.00 59 1004.8
20260903092116 89 233 4.0 11.0 0.00 0.00 0.00 59 1005.0
20260903091614 88 281 8.0 10.0 0.00 0.00 0.00 59 1005.1
20260903091109 89 228 5.0 14.0 0.00 0.00 0.00 60 1005.2
20260903090605 89 246 5.0 9.0 0.00 0.00 0.00 60 1005.0
20260903085602 89 336 5.0 7.0 0.00 0.00 0.00 59 1005.1
20260903085058 88 256 2.0 5.0 0.00 0.00 0.00 62 1005.1
20260903084556 87 250 7.0 10.0 0.00 0.00 0.00 62 1005.2
20260903084050 87 276 7.0 10.0 0.00 0.00 0.00 62 1005.4
20260903083547 89 246 6.0 10.0 0.00 0.00 0.00 60 1005.4
20260903083046 87 273 1.0 3.0 0.00 0.00 0.00 62 1005.3
20260903082540 87 200 5.0 6.0 0.00 0.00 0.00 62 1005.4
20260903082036 87 273 3.0 6.0 0.00 0.00 0.00 62 1005.3
20260903081531 88 282 6.0 7.0 0.00 0.00 0.00 62 1005.4
20260903081027 88 267 2.0 5.0 0.00 0.00 0.00 61 1005.4
20260903080523 87 282 3.0 5.0 0.00 0.00 0.00 61 1005.8
20260903080020 86 308 3.0 5.0 0.00 0.00 0.00 63 1005.6
20260903075514 86 277 2.0 7.0 0.00 0.00 0.00 64 1005.7
20260903075009 86 15 3.0 3.0 0.00 0.00 0.00 63 1005.5
20260903074509 87 274 6.0 7.0 0.00 0.00 0.00 62 1005.5
20260903074003 86 350 2.0 2.0 0.00 0.00 0.00 61 1005.8
20260903073458 85 346 4.0 7.0 0.00 0.00 0.00 63 1005.8
20260903072954 85 292 7.0 7.0 0.00 0.00 0.00 63 1005.8
20260903072450 86 132 0.0 5.0 0.00 0.00 0.00 64 1005.8
20260903071947 85 322 2.0 6.0 0.00 0.00 0.00 65 1005.7
20260903071442 84 353 3.0 6.0 0.00 0.00 0.00 66 1005.7
20260903070938 84 302 3.0 5.0 0.00 0.00 0.00 68 1005.8
20260903070432 85 295 5.0 8.0 0.00 0.00 0.00 68 1005.9
20260903065926 85 271 2.0 6.0 0.00 0.00 0.00 67 1005.8
20260903065421 84 351 0.0 1.0 0.00 0.00 0.00 69 1006.0
20260903064920 84 340 5.0 7.0 0.00 0.00 0.00 68 1006.0
20260903064415 84 168 1.0 3.0 0.00 0.00 0.00 69 1006.1
20260903063911 82 295 1.0 2.0 0.00 0.00 0.00 71 1006.2
20260903063406 82 284 3.0 5.0 0.00 0.00 0.00 72 1006.1
20260903062901 82 245 3.0 5.0 0.00 0.00 0.00 72 1006.2
20260903062356 82 275 3.0 6.0 0.00 0.00 0.00 73 1006.1
20260903061852 83 242 3.0 6.0 0.00 0.00 0.00 72 1006.1
20260903061351 84 167 2.0 3.0 0.00 0.00 0.00 71 1006.2
20260903060848 84 162 3.0 5.0 0.00 0.00 0.00 72 1006.2
20260903060347 83 198 1.0 2.0 0.00 0.00 0.00 74 1006.1
20260903055845 82 89 0.0 3.0 0.00 0.00 0.00 76 1005.8
20260903055343 81 110 1.0 2.0 0.00 0.00 0.00 78 1005.8
20260903054838 80 212 3.0 5.0 0.00 0.00 0.00 79 1006.0
20260903054338 81 267 4.0 5.0 0.00 0.00 0.00 78 1006.3
20260903053835 81 278 3.0 5.0 0.00 0.00 0.00 78 1006.2
20260903053329 82 252 4.0 6.0 0.00 0.00 0.00 78 1006.2
20260903052826 81 205 2.0 3.0 0.00 0.00 0.00 79 1006.2
20260903052321 80 217 3.0 5.0 0.00 0.00 0.00 80 1006.2
20260903051816 80 236 3.0 6.0 0.00 0.00 0.00 81 1006.2
20260903051311 80 238 2.0 3.0 0.00 0.00 0.00 80 1006.2
20260903050807 80 84 0.0 2.0 0.00 0.00 0.00 81 1006.3
20260903050306 80 187 3.0 3.0 0.00 0.00 0.00 81 1006.2
20260903045800 80 72 0.0 1.0 0.00 0.00 0.00 82 1006.2
20260903045251 79 71 0.0 1.0 0.00 0.00 0.00 83 1006.4
20260903044747 78 55 0.0 1.0 0.00 0.00 0.00 84 1006.4
20260903044242 78 79 1.0 1.0 0.00 0.00 0.00 85 1006.2
20260903043738 77 31 0.0 0.0 0.00 0.00 0.00 85 1006.1
20260903043238 77 32 0.0 0.0 0.00 0.00 0.00 86 1006.2
20260903042737 76 57 1.0 1.0 0.00 0.00 0.00 86 1006.3
20260903042232 76 64 0.0 1.0 0.00 0.00 0.00 86 1006.3
20260903041728 76 62 0.0 1.0 0.00 0.00 0.00 86 1006.2
20260903041224 76 54 1.0 1.0 0.00 0.00 0.00 86 1006.3
20260903040719 75 77 0.0 2.0 0.00 0.00 0.00 87 1006.3
20260903040214 75 55 0.0 0.0 0.00 0.00 0.00 87 1006.3
20260903035709 75 34 0.0 0.0 0.00 0.00 0.00 87 1006.3
20260903035159 75 46 0.0 0.0 0.00 0.00 0.00 87 1006.2
20260903034654 75 53 0.0 0.0 0.00 0.00 0.00 87 1006.0
20260903034149 75 79 1.0 1.0 0.00 0.00 0.00 87 1006.1
20260903033644 75 93 1.0 2.0 0.00 0.00 0.00 87 1006.0
20260903033144 75 78 1.0 1.0 0.00 0.00 0.00 87 1006.2
20260903032639 75 76 0.0 0.0 0.00 0.00 0.00 86 1006.0
20260903032135 75 80 0.0 1.0 0.00 0.00 0.00 87 1005.9
20260903031630 75 93 0.0 1.0 0.00 0.00 0.00 86 1006.1
20260903031130 75 96 1.0 1.0 0.00 0.00 0.00 86 1005.8
20260903030626 75 63 0.0 0.0 0.00 0.00 0.00 86 1005.9
20260903030121 75 63 0.0 0.0 0.00 0.00 0.00 86 1006.1
20260903025617 75 71 1.0 2.0 0.00 0.00 0.00 86 1005.7
20260903025113 75 56 0.0 1.0 0.00 0.00 0.00 86 1005.6
20260903024612 75 69 0.0 0.0 0.00 0.00 0.00 86 1005.6
20260903024106 75 68 0.0 0.0 0.00 0.00 0.00 86 1005.8
20260903023602 75 57 0.0 0.0 0.00 0.00 0.00 86 1005.9
20260903023051 76 118 2.0 2.0 0.00 0.00 0.00 86 1005.8
20260903022551 76 71 0.0 1.0 0.00 0.00 0.00 86 1005.7
20260903022050 76 100 2.0 2.0 0.00 0.00 0.00 85 1005.8
20260903021544 76 92 1.0 2.0 0.00 0.00 0.00 85 1005.7
20260903021039 76 62 1.0 2.0 0.00 0.00 0.00 85 1005.6
20260903020535 76 76 0.0 1.0 0.00 0.00 0.00 85 1005.7
20260903020035 76 77 1.0 1.0 0.00 0.00 0.00 85 1005.6
20260903015531 76 87 0.0 1.0 0.00 0.00 0.00 85 1005.7
20260903015026 76 74 0.0 1.0 0.00 0.00 0.00 85 1005.6
20260903014525 76 46 0.0 0.0 0.00 0.00 0.00 84 1005.6
20260903014020 76 41 0.0 0.0 0.00 0.00 0.00 85 1005.9
20260903013519 76 54 0.0 0.0 0.00 0.00 0.00 84 1005.9
20260903013014 76 41 0.0 1.0 0.00 0.00 0.00 84 1005.7
20260903012514 77 51 1.0 2.0 0.00 0.00 0.00 84 1005.6
20260903012012 77 48 0.0 1.0 0.00 0.00 0.00 84 1005.5
20260903011507 77 49 0.0 1.0 0.00 0.00 0.00 84 1005.4
20260903011002 77 51 0.0 0.0 0.00 0.00 0.00 84 1005.4
20260903010457 77 22 1.0 1.0 0.00 0.00 0.00 84 1005.3
20260903005955 77 31 0.0 0.0 0.00 0.00 0.00 84 1005.7
20260903005450 77 150 1.0 3.0 0.00 0.00 0.00 84 1005.5
20260903004946 77 114 3.0 3.0 0.00 0.00 0.00 84 1005.5
20260903004441 77 88 2.0 2.0 0.00 0.00 0.00 83 1005.5